Location: Rowland
(34.5359°N, 79.2929°W)
Time: 18:09:01
(UTC+00:00)

A-11 Canister half - Pass Details

Date: 12 October 2022
Orbit: 1515 x 1684 km, 47.2° (Epoch: 06 December)

Event Time Altitude Azimuth Distance (km) Brightness Sun altitude
Rises 04:19:25 0° 302° (WNW) 4,781 11.9 -61.0°
Reaches altitude 10° 04:22:41 10° 307° (NW) 3,772 11.3 -61.2°
Enters shadow 04:23:01 11° 308° (NW) 3,670 11.2 -61.3°
